Location: Batarali
(43.6197°N, 16.6311°E)
Time: 18:41:06
(UTC+00:00)

Daily predictions for brighter satellites

Satellite Brightness Start Highest point End
(mag) Time Altitude Azimuth Time Altitude Azimuth Time Altitude Azimuth
STARLINK-1119 3.7 19:02:36 10° WNW 19:06:45 79° SW 19:10:53 10° SE
Cosmos 1300 Rocket 3.9 19:04:52 10° NNW 19:09:18 72° W 19:13:41 10° S
Aureole 2 Rocket 3.2 19:08:11 10° SW 19:11:09 47° WNW 19:13:58 10° N
STARLINK-1114 3.7 19:07:36 10° WNW 19:11:45 73° SW 19:15:52 10° SE
Cosmos 2279 Rocket 4.1 19:08:27 10° N 19:14:43 86° W 19:20:54 10° S
CENTAUR R/B 3.9 19:07:27 10° NNW 19:14:59 44° NE 19:23:13 10° ESE
Resurs 01 Rocket 1.7 19:11:28 10° SSE 19:15:53 68° ENE 19:20:19 10° N
STARLINK-1130 (DARKSAT) 3.8 19:12:34 10° WNW 19:16:41 66° SW 19:20:47 10° SE
USA 245 4.3 19:15:16 10° ESE 19:16:51 15° ENE 19:18:21 10° NNE
MOS 1 Rocket 4.0 19:12:57 10° N 19:17:09 53° WNW 19:21:19 10° SSW
Cosmos 2151 Rocket 3.9 19:14:02 10° NNW 19:18:34 73° W 19:23:04 10° S
Cosmos 1066 Rocket 4.1 19:16:18 10° S 19:21:35 64° E 19:26:53 10° NNE
STARLINK-1084 3.9 19:17:35 10° WNW 19:21:41 61° SW 19:25:36 11° SE
Cosmos 1110 Rocket 4.0 19:17:06 10° SSW 19:22:17 89° ESE 19:27:29 10° NNE
Spot 2 Rocket 4.1 19:17:40 10° SE 19:22:21 41° ENE 19:27:04 10° N
Meteor 1-23 Rocket 4.2 19:17:14 10° S 19:22:51 69° E 19:28:26 10° NNE
ATLAS 3B R/B 4.3 19:17:29 10° NNW 19:22:56 25° NNE 19:28:30 10° E
STARLINK-52 3.1 19:20:47 10° SW 19:23:53 48° SE 19:26:59 10° ENE
Cosmos 304 Rocket 4.4 19:20:43 10° SSW 19:25:26 60° WNW 19:30:12 10° NNE
NOSS 2-2 (D) 3.8 19:22:41 10° SW 19:26:12 59° NW 19:30:05 10° NNE
STARLINK-1098 4.0 19:22:33 10° WNW 19:26:37 55° SW 19:30:21 12° SE
Cosmos 1378 3.6 19:23:58 10° SSE 19:27:28 41° E 19:30:58 10° NNE
Terra 3.8 19:24:51 10° E 19:27:33 15° ENE 19:30:15 10° NNE
Resurs 1-3 4.1 19:23:31 10° S 19:27:52 61° W 19:32:13 10° NNW
EXPRESS MD2 4.0 19:26:44 10° W 19:29:28 50° NNW 19:34:17 10° ENE
Cosmos 1378 Rocket 3.5 19:26:51 10° S 19:31:14 82° E 19:35:36 10° N
Cosmos 1674 Rocket 3.8 19:27:12 10° SSW 19:31:34 76° W 19:36:02 10° N
STARLINK-1123 4.1 19:27:34 10° WNW 19:31:36 50° SW 19:35:09 13° SSE
Cosmos 1331 Rocket 4.1 19:28:59 10° SSW 19:34:08 81° WNW 19:39:22 10° NNE
STARLINK-1097 4.3 19:32:34 10° WNW 19:36:33 46° SW 19:39:56 14° SSE
NOSS 3-2 (C) 4.4 19:31:00 10° NNW 19:38:25 59° NE 19:46:03 13° SE
Cosmos 1805 3.5 19:36:03 10° N 19:39:54 51° ENE 19:43:03 14° SSE
SAR-Lupe-2 4.1 19:37:28 10° NNE 19:40:52 38° E 19:43:53 12° SSE
STARLINK-1099 4.4 19:37:34 10° WNW 19:41:29 42° SW 19:44:41 14° SSE
Abrixas rocket 4.2 19:42:49 10° W 19:44:38 15° SW 19:46:20 10° S
COSMOS 2455 3.9 19:40:33 11° SSE 19:44:49 24° ESE 19:49:28 10° NE
STARLINK-1444 3.4 19:44:08 10° WSW 19:46:09 40° NNW 19:48:10 10° NE
NOSS 3-4 (A) 3.8 19:41:00 10° S 19:46:25 39° ESE 19:52:05 10° NE
NOSS 3-4 (C) 3.8 19:41:07 10° S 19:46:31 38° ESE 19:52:11 10° NE
STARLINK-1452 3.4 19:44:47 10° WSW 19:46:47 39° NNW 19:48:47 10° NE
STARLINK-1392 3.5 19:45:47 10° WSW 19:47:42 37° NNW 19:49:38 10° NE
STARLINK-1399 3.5 19:45:47 10° WSW 19:47:43 37° NNW 19:49:40 10° NE
STARLINK-1393 3.5 19:45:49 10° WSW 19:47:45 37° NNW 19:49:42 10° NE
STARLINK-1394 3.5 19:45:51 10° WSW 19:47:46 37° NNW 19:49:44 10° NE
STARLINK-1397 3.5 19:45:53 10° WSW 19:47:49 37° NNW 19:49:46 10° NE
STARLINK-1395 3.5 19:45:55 10° WSW 19:47:50 36° NNW 19:49:44 10° NE
STARLINK-1396 3.5 19:45:53 10° WSW 19:47:50 37° NNW 19:49:46 10° NE
STARLINK-1414 3.5 19:45:55 10° WSW 19:47:50 37° NNW 19:49:46 10° NE
STARLINK-1408 3.5 19:45:58 10° WSW 19:47:53 36° NNW 19:49:49 10° NE
STARLINK-1404 3.5 19:45:58 10° WSW 19:47:53 37° NNW 19:49:50 10° NE
STARLINK-1416 3.5 19:45:59 10° WSW 19:47:54 36° NNW 19:49:50 10° NE
STARLINK-1415 3.5 19:45:58 10° WSW 19:47:55 37° NNW 19:49:52 10° NE
STARLINK-1450 3.5 19:45:59 10° WSW 19:47:55 37° NNW 19:49:53 10° NE
STARLINK-1401 3.5 19:46:01 10° WSW 19:47:58 37° NNW 19:49:56 10° NE
STARLINK-1406 3.5 19:46:04 10° WSW 19:47:58 36° NNW 19:49:54 10° NE
STARLINK-1417 3.5 19:46:05 10° WSW 19:48:01 37° NNW 19:49:59 10° NE
STARLINK-1402 3.5 19:46:06 10° WSW 19:48:02 37° NNW 19:50:00 10° NE
STARLINK-1419 3.5 19:46:07 10° WSW 19:48:03 37° NNW 19:49:59 10° NE
STARLINK-1413 3.5 19:46:06 10° WSW 19:48:03 37° NNW 19:50:00 10° NE
STARLINK-1422 3.5 19:46:12 10° WSW 19:48:07 37° NNW 19:50:05 10° NE
STARLINK-1453 3.5 19:46:11 10° WSW 19:48:08 37° NNW 19:50:06 10° NE
STARLINK-1398 3.5 19:46:11 10° WSW 19:48:08 37° NNW 19:50:08 10° NE
STARLINK-1440 3.5 19:46:13 10° WSW 19:48:09 37° NNW 19:50:07 10° NE
STARLINK-1436 (VISORSAT) 3.5 19:46:13 10° WSW 19:48:10 37° NNW 19:50:10 10° NE
STARLINK-1420 3.5 19:46:14 10° WSW 19:48:11 37° NNW 19:50:09 10° NE
STARLINK-1460 3.5 19:46:17 10° WSW 19:48:13 37° NNW 19:50:11 10° NE
STARLINK-1410 3.5 19:46:22 10° WSW 19:48:19 36° NNW 19:50:16 10° NE
STARLINK-1423 3.5 19:46:23 10° WSW 19:48:19 36° NNW 19:50:16 10° NE
STARLINK-1421 3.5 19:46:23 10° WSW 19:48:19 36° NNW 19:50:16 10° NE
STARLINK-1400 3.5 19:46:22 10° WSW 19:48:19 37° NNW 19:50:17 10° NE
STARLINK-1454 3.5 19:46:23 10° WSW 19:48:19 36° NNW 19:50:17 10° NE
STARLINK-1458 3.5 19:46:25 10° WSW 19:48:21 36° NNW 19:50:18 10° NE
Cosmos 1302 Rocket 4.0 19:43:06 10° S 19:48:21 72° ESE 19:53:38 10° NNE
STARLINK-1445 3.5 19:46:26 10° WSW 19:48:23 37° NNW 19:50:21 10° NE
STARLINK-1446 3.5 19:46:28 10° WSW 19:48:25 36° NNW 19:50:23 10° NE
STARLINK-1407 3.5 19:46:29 10° WSW 19:48:26 36° NNW 19:50:24 10° NE
STARLINK-1405 3.5 19:46:33 10° WSW 19:48:28 36° NNW 19:50:22 10° NE
STARLINK-1370 3.5 19:46:31 10° WSW 19:48:28 36° NNW 19:50:26 10° NE
STARLINK-1457 3.5 19:46:32 10° WSW 19:48:28 36° NNW 19:50:26 10° NE
STARLINK-1456 3.5 19:46:32 10° WSW 19:48:28 36° NNW 19:50:26 10° NE
STARLINK-1451 3.5 19:46:33 10° WSW 19:48:29 36° NNW 19:50:26 10° NE
STARLINK-1437 3.5 19:46:33 10° WSW 19:48:29 36° NNW 19:50:27 10° NE
STARLINK-1409 3.5 19:46:34 10° WSW 19:48:30 36° NNW 19:50:27 10° NE
STARLINK-1447 3.5 19:46:33 10° WSW 19:48:30 36° NNW 19:50:28 10° NE
STARLINK-1439 3.5 19:46:37 10° WSW 19:48:30 36° NNW 19:50:25 10° NE
STARLINK-1455 3.5 19:46:33 10° WSW 19:48:30 36° NNW 19:50:28 10° NE
STARLINK-1441 3.5 19:46:35 10° WSW 19:48:32 36° NNW 19:50:29 10° NE
STARLINK-1443 3.5 19:46:37 10° WSW 19:48:34 36° NNW 19:50:32 10° NE
STARLINK-1351 3.5 19:46:40 10° WSW 19:48:36 36° NNW 19:50:34 10° NE
STARLINK-1418 3.5 19:46:40 10° WSW 19:48:36 36° NNW 19:50:34 10° NE
STARLINK-1442 3.5 19:46:40 10° WSW 19:48:37 36° NNW 19:50:34 10° NE
STARLINK-1434 3.5 19:46:40 10° WSW 19:48:37 36° NNW 19:50:35 10° NE
STARLINK-1403 3.5 19:46:40 10° WSW 19:48:37 36° NNW 19:50:35 10° NE
STARLINK-1448 3.5 19:46:42 10° WSW 19:48:39 36° NNW 19:50:36 10° NE
STARLINK-1433 3.5 19:46:43 10° WSW 19:48:40 36° NNW 19:50:38 10° NE
STARLINK-1449 3.5 19:46:44 10° WSW 19:48:42 36° NNW 19:50:39 10° NE
STARLINK-1438 3.5 19:46:48 10° WSW 19:48:44 36° NNW 19:50:41 10° NE
STARLINK-1411 3.5 19:46:54 10° WSW 19:48:50 36° NNW 19:50:48 10° NE
STARLINK-1412 3.5 19:46:54 10° WSW 19:48:51 36° NNW 19:50:49 10° NE
FALCON 9 DEB 3.2 19:46:12 10° SW 19:49:32 52° SE 19:52:52 10° ENE
Cosmos 1733 3.7 19:46:48 10° N 19:50:27 43° ENE 19:52:52 19° SE
CZ-2C R/B 4.0 19:45:49 10° N 19:51:07 44° WNW 19:56:22 10° SW
STARLINK-60 4.5 19:49:01 10° W 19:52:01 39° NNW 19:55:02 10° NE
SL-8 R/B 4.4 19:48:52 10° WNW 19:53:23 42° SW 19:56:40 17° SSE
STARLINK-1235 3.8 19:50:31 10° NW 19:53:54 50° NNE 19:56:27 16° ESE
SPOT 1/Viking Rocket 3.7 19:49:52 15° SSE 19:54:00 58° ENE 19:59:04 10° N
Cosmos 2263 4.4 19:48:58 10° S 19:54:20 50° ESE 19:59:44 10° NE
Cosmos 1092 Rocket 4.0 19:48:56 10° S 19:54:56 62° E 20:01:01 10° NNE
STARLINK-1352 4.4 19:51:53 10° S 19:55:16 27° SE 19:58:39 10° ENE
Cosmos 1842 3.8 19:53:22 17° SSE 19:55:57 40° E 19:59:37 10° NNE
Milstar 3 Cent rocket 4.4 19:50:16 10° SSW 19:57:12 29° SSE 20:09:35 10° E
Cosmos 1975 Rocket 3.3 19:53:45 14° SSE 19:57:24 52° E 20:01:40 10° NNE
Cosmos 1486 Rocket 4.4 19:52:38 10° NNW 19:57:49 52° ENE 20:01:30 18° SE
SL-27 R/B 2.6 19:54:24 10° NNW 19:57:56 60° ENE 19:59:59 22° SE
STARLINK-1368 4.3 19:56:10 10° SSW 19:59:38 29° SE 20:03:06 10° ENE
Cosmos 292 Rocket 3.9 19:55:35 10° S 20:00:18 57° ESE 20:05:05 10° NNE
Cosmos 1943 Rocket 2.4 19:55:53 10° SSW 20:01:25 75° WNW 20:07:03 10° NNE
STARLINK-1212 3.6 20:00:19 10° NW 20:03:22 47° NNE 20:05:19 19° E
STARLINK-1369 4.2 20:00:09 10° SSW 20:03:39 31° SE 20:07:10 10° ENE
STARLINK-1105 3.6 20:00:56 10° NW 20:04:00 48° NNE 20:05:55 20° E
STARLINK-1247 3.5 20:02:05 10° NW 20:05:09 49° NNE 20:07:02 20° E
Cosmos 1992 Rocket 4.5 20:01:59 16° SSE 20:05:42 39° ESE 20:10:32 10° NE
STARLINK-1227 3.5 20:02:40 10° NW 20:05:44 50° NNE 20:07:36 21° E
STARLINK-1226 3.5 20:03:48 10° NW 20:06:53 51° NNE 20:08:42 21° E
STARLINK-1215 3.5 20:04:55 10° NW 20:08:01 52° NNE 20:09:48 22° E
STARLINK-1372 4.1 20:04:26 10° SSW 20:08:02 33° SE 20:11:39 10° ENE
Cosmos 1271 Rocket 3.8 20:07:48 23° SE 20:09:12 28° E 20:12:38 10° NNE
Cosmos 1953 4.4 20:08:02 10° NE 20:10:13 14° ENE 20:11:39 12° E
STARLINK-1217 3.4 20:07:07 10° NW 20:10:14 54° NNE 20:11:56 23° E
CZ-4B DEB 4.4 20:09:27 26° SSE 20:11:08 66° ENE 20:14:27 10° N
STARLINK-1229 3.4 20:08:12 10° NW 20:11:20 55° NNE 20:12:59 24° ESE
STARLINK-1378 4.0 20:08:44 10° SSW 20:12:24 36° SE 20:16:04 10° ENE
STARLINK-1270 3.3 20:09:19 10° NW 20:12:28 57° NNE 20:14:06 25° ESE
ATLAS 2AS CENTAUR R/B 3.0 20:06:14 10° SSW 20:14:06 69° ESE 20:22:01 10° NE
STARLINK-1189 3.2 20:11:40 10° NW 20:14:49 59° NNE 20:16:20 26° ESE
SL-4 R/B 3.1 20:11:03 10° WSW 20:15:41 55° NNW 20:20:28 10° NE
STARLINK-1188 3.2 20:12:52 10° NW 20:16:01 61° NNE 20:17:30 27° ESE
NOSS 3-2 (A) 4.3 20:08:49 10° NW 20:16:25 68° WSW 20:22:52 19° SSE
STARLINK-1379 3.9 20:13:06 10° SSW 20:16:49 40° SE 20:20:34 10° ENE
STARLINK-1191 3.1 20:15:25 10° NW 20:18:35 64° NNE 20:19:59 29° ESE
Landsat 7 4.0 20:15:51 17° S 20:19:29 69° WSW 20:24:14 10° NNW
STARLINK-1221 3.1 20:16:40 10° NW 20:19:49 66° NNE 20:21:09 31° ESE
Cosmos 1242 Rocket 2.6 20:18:28 27° SSE 20:20:15 57° E 20:23:53 10° NNE
STARLINK-1329 3.8 20:16:44 10° SSW 20:20:30 42° SE 20:24:18 10° ENE
Cosmos 1656 Rocket 3.7 20:15:25 11° S 20:20:46 57° ESE 20:26:14 10° NNE
STARLINK-1222 3.1 20:17:48 10° NW 20:20:58 67° NNE 20:22:14 32° ESE
Cosmos 1707 3.8 20:20:12 25° ESE 20:21:08 28° E 20:24:28 10° NNE
Meteor 2-13 Rocket 4.5 20:16:37 16° S 20:21:34 66° E 20:27:41 10° NNE
STARLINK-1214 3.0 20:19:08 10° NW 20:22:18 69° NE 20:23:32 33° ESE
ERS-1 Rocket 3.0 20:19:08 22° SSE 20:22:21 76° ENE 20:27:25 10° N
STARLINK-29 4.3 20:21:34 10° W 20:24:39 41° NNW 20:27:44 10° NE
STARLINK-1362 3.7 20:21:08 10° SSW 20:24:58 46° SE 20:28:49 10° ENE
Cosmos 1455 Rocket 2.9 20:22:52 10° N 20:27:13 78° E 20:29:27 28° SSE
STARLINK-1373 3.6 20:25:34 10° SW 20:29:26 50° SE 20:33:19 10° ENE
Cosmos 1758 3.9 20:25:37 10° N 20:29:32 43° ENE 20:31:01 30° SE
USA 238 DEB 4.3 20:24:18 10° NW 20:31:20 54° WSW 20:36:27 20° S
USA 238 4.3 20:24:24 10° NW 20:31:27 55° WSW 20:36:34 20° S
IGS 5A 4.3 20:29:40 18° SSW 20:32:30 45° W 20:36:31 10° NNW
STARLINK-1209 3.1 20:29:14 10° WNW 20:32:42 70° SW 20:33:43 42° SSE
Cosmos 2026 Rocket 4.0 20:27:21 14° S 20:32:57 89° E 20:39:22 10° N
Meteor 1-21 4.1 20:28:50 18° S 20:33:04 76° E 20:38:40 10° NNE
STARLINK-1390 3.5 20:30:02 10° SW 20:33:55 55° SE 20:37:51 10° ENE
ATLAS CENTAUR R/B 1.3 20:29:52 10° SSW 20:34:19 86° ESE 20:38:29 10° NE
Okean 2 4.2 20:30:50 11° SSW 20:34:43 51° WNW 20:38:48 10° N
Cosmos 968 Rocket 3.4 20:30:05 10° NNW 20:35:16 86° ENE 20:37:57 29° SSE
CARTOSAT-1 3.5 20:34:05 28° S 20:36:20 83° WSW 20:40:40 10° NNW
Cosmos 2369 Rocket 2.9 20:31:18 10° SW 20:36:51 56° WNW 20:42:25 10° NNE
STARLINK-1365 3.4 20:35:36 10° SW 20:39:34 63° SE 20:43:35 10° ENE
STARLINK-1320 2.7 20:37:05 10° SW 20:40:12 85° SE 20:43:20 10° NE
STARLINK-1322 2.7 20:37:26 10° SW 20:40:33 86° SE 20:43:41 10° NE
STARLINK-1324 2.7 20:37:44 10° SW 20:40:50 87° SSE 20:43:58 10° NE
STARLINK-1294 2.7 20:38:05 10° SW 20:41:10 87° SE 20:44:17 10° NE
Cosmos 1867 3.6 20:35:54 10° NNW 20:41:23 82° NE 20:44:11 30° SE
STARLINK-1261 2.7 20:38:26 10° SW 20:41:33 88° SSE 20:44:41 10° NE
STARLINK-1325 2.7 20:38:47 10° SW 20:41:54 88° SSE 20:45:02 10° NE
STARLINK-1333 2.7 20:39:10 10° SW 20:42:16 89° SSE 20:45:24 10° NE
STARLINK-1334 2.7 20:39:27 10° SW 20:42:34 89° ESE 20:45:41 10° NE
STARLINK-1187 3.0 20:39:32 10° WNW 20:42:48 68° SW 20:43:20 55° SSE
STARLINK-1326 2.7 20:39:46 10° SW 20:42:53 90° NNE 20:46:00 10° NE
STARLINK-1323 2.7 20:40:08 10° SW 20:43:15 89° NNW 20:46:23 10° NE
STARLINK-1349 2.7 20:40:25 10° SW 20:43:32 89° NNW 20:46:40 10° NE
STARLINK-1336 2.7 20:40:46 10° SW 20:43:52 88° NW 20:47:01 10° NE
STARLINK-1331 2.8 20:41:09 10° SW 20:44:15 87° NW 20:47:24 10° NE
STARLINK-1344 2.8 20:41:27 10° SW 20:44:34 87° NNW 20:47:42 10° NE
Cosmos 1553 Rocket 4.0 20:38:34 10° N 20:44:48 68° E 20:48:07 28° SSE
STARLINK-1343 2.8 20:41:50 10° SW 20:44:57 86° NNW 20:48:04 10° NE
STARLINK-1346 2.8 20:42:07 10° SW 20:45:14 86° NW 20:48:23 10° NE
STARLINK-1328 2.8 20:42:32 10° SW 20:45:39 85° NW 20:48:47 10° NE
STARLINK-1354 2.8 20:42:50 10° SW 20:45:57 85° NW 20:49:04 10° NE
STARLINK-1347 2.8 20:43:09 10° SW 20:46:15 84° NW 20:49:23 10° NE
STARLINK-1357 2.8 20:43:33 10° WSW 20:46:40 83° NNW 20:49:48 10° NE
STARLINK-1234 3.4 20:43:12 10° WNW 20:46:42 56° SW 20:47:18 48° S
STARLINK-1335 2.8 20:43:50 10° WSW 20:46:57 83° NW 20:50:05 10° NE
STARLINK-1327 2.8 20:44:12 10° WSW 20:47:18 82° NW 20:50:26 10° NE
STARLINK-1340 2.8 20:44:30 10° WSW 20:47:37 82° NNW 20:50:44 10° NE
STARLINK-1356 2.8 20:44:52 10° WSW 20:47:59 81° NNW 20:51:06 10° NE
STARLINK-1345 2.9 20:45:11 10° WSW 20:48:17 81° NW 20:51:25 10° NE
STARLINK-1355 2.9 20:45:32 10° WSW 20:48:39 80° NW 20:51:47 10° NE
STARLINK-1321 2.9 20:45:53 10° WSW 20:48:59 79° NW 20:52:07 10° NE
STARLINK-1358 2.9 20:46:16 10° WSW 20:49:23 79° NNW 20:52:30 10° NE
STARLINK-1332 2.9 20:46:34 10° WSW 20:49:40 78° NW 20:52:47 10° NE
STARLINK-1348 2.9 20:46:53 10° WSW 20:50:00 78° NNW 20:53:08 10° NE
STARLINK-1330 2.9 20:47:14 10° WSW 20:50:20 77° NW 20:53:28 10° NE
STARLINK-1363 2.9 20:47:33 10° WSW 20:50:39 77° NW 20:53:47 10° NE
STARLINK-1206 4.4 20:46:47 10° NW 20:50:48 47° NNE 20:53:07 22° E
STARLINK-1337 2.9 20:47:56 10° WSW 20:51:02 76° NW 20:54:10 10° NE
STARLINK-1338 3.3 20:47:14 10° SW 20:51:11 77° SE 20:55:09 10° ENE
STARLINK-1342 2.9 20:48:16 10° WSW 20:51:22 75° NNW 20:54:29 10° NE
STARLINK-1364 3.0 20:48:35 10° WSW 20:51:42 75° NW 20:54:49 10° NE
STARLINK-1228 3.5 20:48:27 10° WNW 20:51:59 51° SW 20:52:28 46° S
STARLINK-1376 3.0 20:48:56 10° WSW 20:52:02 74° NW 20:55:09 10° NE
STARLINK-1360 3.0 20:49:16 10° WSW 20:52:22 74° NW 20:55:30 10° NE
STARLINK-1361 3.0 20:49:37 10° WSW 20:52:43 73° NW 20:55:50 10° NE
Resurs 01 Rocket 4.3 20:51:04 10° WSW 20:52:50 12° W 20:54:36 10° WNW
STARLINK-1367 3.0 20:49:54 10° WSW 20:53:00 73° NNW 20:56:08 10° NE
STARLINK-1366 3.0 20:50:16 10° WSW 20:53:23 72° NNW 20:56:30 10° NE
STARLINK-1205 4.3 20:51:45 10° NW 20:55:47 50° NNE 20:57:54 25° E
Cosmos 1536 Rocket 3.5 20:55:58 40° SSE 20:57:22 67° E 21:01:44 10° NNE
Cosmos 2084 3.6 20:56:26 38° S 20:57:48 56° ESE 21:02:11 10° NE
STARLINK-1371 3.3 20:55:07 10° SW 20:59:03 87° SE 21:02:59 10° NE
SPOT 5 3.5 20:57:53 26° S 21:00:48 58° W 21:06:06 10° NNW
STARLINK-1218 4.2 20:56:44 10° NW 21:00:48 54° NNE 21:02:42 28° E
In-Cosmos 22 4.4 20:59:51 35° SE 21:01:36 48° E 21:06:40 10° NNE
STARLINK-1341 3.4 20:59:22 10° SW 21:03:17 87° NW 21:07:14 10° NE
Cosmos 1544 Rocket 3.9 21:00:25 10° NNW 21:04:41 57° W 21:06:25 33° SSW
Terra 1.9 21:02:43 34° S 21:04:43 69° WSW 21:09:29 10° NNW
Cosmos 2266 Rocket 4.2 21:03:13 33° SSE 21:05:39 51° E 21:11:28 10° NNE
STARLINK-1254 4.1 21:01:42 10° NW 21:05:48 58° NNE 21:07:29 32° E
CENTAUR R/B 3.5 20:58:07 10° NW 21:06:10 61° WSW 21:11:11 27° S
BREEZE-M DEB 4.1 21:03:53 10° W 21:06:40 49° N 21:14:20 10° ENE
JB-3 4.3 21:02:42 10° NNE 21:06:49 67° ESE 21:07:38 51° SSE
Thor Agena Rocket 4.1 21:02:47 10° NNE 21:07:48 42° E 21:09:05 36° SE
Cosmos 2292 Rocket 4.0 21:08:26 31° ENE 21:08:26 31° ENE 21:10:43 10° NNE
STARLINK-1374 3.5 21:04:10 10° WSW 21:08:09 81° NW 21:12:08 10° NE
STARLINK-1231 3.9 21:06:40 10° NW 21:10:47 62° NNE 21:12:15 36° E
Cosmos 1655 Rocket 3.9 21:09:11 31° S 21:12:24 80° E 21:18:42 10° N
STARLINK-1339 3.6 21:08:28 10° WSW 21:12:27 76° NW 21:16:27 10° NE
Cosmos 1726 2.1 21:10:38 10° N 21:14:22 64° E 21:14:42 60° ESE
ATLAS 3B R/B 2.7 21:07:43 10° NW 21:14:34 85° NE 21:18:07 32° SE
STARLINK-1232 3.8 21:11:40 10° NW 21:15:48 67° NNE 21:17:03 41° E
STARLINK-1377 3.7 21:12:48 10° WSW 21:16:46 71° NNW 21:20:45 10° NE
Cosmos 1674 3.5 21:18:37 35° E 21:18:37 35° E 21:21:57 10° NNE
Cosmos 1503 Rocket 4.4 21:14:21 10° NNW 21:19:34 55° WSW 21:21:37 34° SSW
STARLINK-1208 3.7 21:16:37 10° NW 21:20:46 72° NNE 21:21:50 47° ESE
STARLINK-1353 3.8 21:17:07 10° WSW 21:21:05 66° NNW 21:25:04 10° NE
Cosmos 1470 3.9 21:18:30 10° NNW 21:22:04 36° W 21:23:07 30° SW
BREEZE-M DEB (TANK) 4.2 21:11:14 10° W 21:23:52 54° NNW 21:27:29 10° ENE
Meteor 2-10 3.9 21:19:02 10° NNW 21:24:05 80° W 21:25:45 43° S
STARLINK-1375 4.0 21:21:29 10° WSW 21:25:26 62° NNW 21:29:25 10° NE
STARLINK-1271 3.6 21:21:36 10° NW 21:25:45 78° NE 21:26:37 54° ESE
BREEZE-M DEB (TANK) 2.6 21:18:14 10° SW 21:26:43 63° SSE 21:29:50 10° ENE
SeaSat 1 3.2 21:23:21 10° NE 21:27:47 33° ESE 21:27:48 33° ESE
BREEZE-M DEB (TANK) 3.8 21:25:49 10° WNW 21:29:19 47° NNE 21:32:59 12° E
STARLINK-1350 4.1 21:25:49 10° WSW 21:29:45 58° NNW 21:33:42 10° NE
Cosmos 883 Rocket 4.5 21:23:51 10° N 21:29:58 68° E 21:32:14 39° SSE
COSMOS 2455 3.3 21:24:20 10° SW 21:30:16 61° NW 21:36:16 10° NNE
Cosmos 1606 Rocket 4.1 21:26:33 10° N 21:30:41 43° ENE 21:31:19 40° E
STARLINK-1154 3.5 21:26:33 10° NW 21:30:43 84° NE 21:31:22 62° ESE
Cosmos 1340 Rocket 2.8 21:27:31 10° NNW 21:31:37 79° W 21:32:10 64° SSW
Cosmos 1025 Rocket 4.0 21:30:38 27° SW 21:32:30 42° WNW 21:36:37 10° N
ATLAS 3B CENTAUR R/B 4.3 21:24:20 10° WSW 21:34:03 24° SSW 21:35:20 23° SSW
STARLINK-1352 4.2 21:30:14 10° WSW 21:34:09 54° NNW 21:38:05 10° NE
STARLINK-1197 3.5 21:31:32 10° NW 21:35:42 90° NE 21:36:10 70° SE
COSMOS 2487 3.2 21:33:03 10° NNW 21:36:14 42° W 21:36:14 42° W
ALOS 2 3.8 21:37:12 28° E 21:38:08 31° ENE 21:41:59 10° N
STARLINK-1368 4.3 21:34:39 10° WSW 21:38:34 51° NNW 21:42:29 10° NE
STARLINK-1198 3.4 21:36:31 10° NW 21:40:41 84° SW 21:40:57 77° SSE
STARLINK-1369 4.4 21:38:37 10° WSW 21:42:28 48° NNW 21:46:19 10° NE
Aureole 3 3.4 21:39:57 10° N 21:42:17 50° N 21:42:17 50° N
RESURS DK-1 2.6 21:42:39 46° SW 21:43:42 66° WNW 21:47:50 10° NNE
ATLAS 5 CENTAUR R/B 2.5 21:38:58 10° SW 21:44:10 46° NW 21:46:30 10° NNE
Meteor 2-19 Rocket 4.5 21:42:44 35° SSW 21:45:30 76° W 21:51:39 10° N
STARLINK-1199 3.4 21:41:30 10° WNW 21:45:38 77° SW 21:45:43 77° SSW
Cosmos 1626 3.7 21:46:19 25° ENE 21:46:19 25° ENE 21:48:52 10° NNE
CZ-4C R/B 3.4 21:46:27 22° E 21:46:27 22° E 21:50:03 10° ENE
Meteor 1-24 Rocket 4.3 21:44:56 36° ESE 21:45:53 39° E 21:50:59 10° NNE
Cosmos 1953 2.9 21:43:05 10° NNW 21:46:53 44° W 21:47:21 42° WSW
Cosmos 2297 Rocket 3.3 21:43:19 10° N 21:48:30 35° NE 21:51:11 23° ESE
STARLINK-1210 3.5 21:46:29 10° WNW 21:50:30 70° SW 21:50:30 70° SW
Spot 4 3.8 21:50:03 57° SSE 21:51:04 86° ENE 21:55:56 10° NNW
Lacrosse 4 Rocket 3.9 21:49:29 10° N 21:52:14 16° NE 21:54:47 11° E
Cosmos 2219 3.9 21:46:59 10° NNW 21:52:24 45° ENE 21:54:40 30° ESE
Cosmos 921 Rocket 3.0 21:52:46 60° ESE 21:52:48 60° ESE 21:57:07 10° NNE
Cosmos 220 Rocket 4.1 21:52:58 58° ESE 21:53:01 58° ESE 21:57:24 10° NNE
Cosmos 2228 2.8 21:49:31 10° N 21:53:45 75° E 21:54:03 71° ESE
STARLINK-1219 3.7 21:51:30 10° WNW 21:55:19 62° WSW 21:55:19 62° WSW
SL-4 R/B 4.3 21:51:50 10° WNW 21:56:09 32° N 22:00:29 10° ENE
STARLINK-1211 3.9 21:56:30 10° WNW 22:00:05 54° WSW 22:00:05 54° WSW
SL-4 R/B 4.1 22:03:44 12° N 22:03:44 12° N 22:04:01 10° N
EO 1 Del DPAF 3.7 22:00:56 10° N 22:04:37 51° WNW 22:04:56 49° W
STARLINK-1245 4.1 22:01:28 10° WNW 22:04:51 47° WSW 22:04:51 47° WSW
ATLAS 2AS CENTAUR R/B 4.4 21:58:22 10° WSW 22:05:41 38° NW 22:12:56 10° NNE
Timation 2 Rocket 3.9 22:01:53 10° NNW 22:08:06 73° WSW 22:09:46 49° S
Cosmos 1809 Rocket 4.4 22:07:49 47° S 22:09:42 78° E 22:15:54 10° N
Okean 1-7 Rocket 3.6 22:09:54 61° ESE 22:10:09 62° E 22:14:39 10° NNE
STARLINK-1233 4.3 22:06:29 10° WNW 22:09:38 42° W 22:09:38 42° W
Helios 1A 4.0 22:10:55 34° E 22:11:26 35° ENE 22:15:16 10° N
STARLINK-1143 4.4 22:08:44 10° NW 22:12:46 49° NNE 22:14:04 35° ENE
Cosmos 1697 Rocket 3.9 22:12:54 26° ESE 22:13:10 26° ESE 22:17:47 10° NE
ATLAS CENTAUR R/B 4.3 22:11:13 10° WNW 22:13:42 15° NW 22:16:07 10° N
Cosmos 1726 Rocket 3.4 22:09:38 10° N 22:13:58 81° W 22:14:12 77° SW
Cosmos 1892 Rocket 3.3 22:14:31 80° SSE 22:14:44 86° E 22:19:07 10° N
BREEZE-M R/B 3.9 22:05:26 10° WSW 22:15:16 85° NNW 22:19:44 10° ENE
STARLINK-1241 4.3 22:13:43 10° NW 22:17:47 52° NNE 22:18:51 40° ENE
SJ 16-02 2.4 22:17:35 10° N 22:21:43 36° ENE 22:22:33 33° E
Cosmos 1437 4.4 22:23:34 29° NNE 22:23:34 29° NNE 22:25:14 10° NNE
STARLINK-1239 4.1 22:18:41 10° NW 22:22:47 56° NNE 22:23:39 45° ENE
Nadezhda 2 Rocket 4.4 22:21:48 48° S 22:23:39 88° W 22:29:51 10° N
Cosmos 2315 Rocket 4.3 22:18:30 10° NNW 22:24:34 58° W 22:26:32 41° SSW
Cosmos 1763 Rocket 4.3 22:25:58 34° ESE 22:26:05 34° ESE 22:30:38 10° NE
Cosmos 2227 Rocket 2.6 22:20:50 10° NNW 22:26:28 58° ENE 22:28:23 39° ESE
STARLINK-1240 4.0 22:23:37 10° NW 22:27:44 60° NNE 22:28:24 52° ENE
STARLINK-1216 3.9 22:28:37 10° NW 22:32:45 65° NNE 22:33:11 59° ENE
SL-14 R/B 3.4 22:36:22 68° NW 22:36:22 68° NW 22:39:55 10° N
Cosmos 1356 Rocket 3.6 22:33:27 10° N 22:37:39 60° ENE 22:37:47 60° E
STARLINK-1237 3.7 22:33:35 10° NW 22:37:44 70° NNE 22:37:58 68° ENE
Nadezhda 1 Rocket 4.4 22:32:34 10° N 22:38:43 56° ENE 22:40:51 39° SE
STARLINK-1202 3.6 22:38:34 10° NW 22:42:43 75° NNE 22:42:45 75° NE
Meteor 2-16 Rocket 4.4 22:43:09 52° S 22:44:47 82° E 22:50:55 10° N
STARLINK-1203 3.6 22:42:31 10° NW 22:46:22 75° NNW 22:46:22 75° NNW
Meteor 2-5 Rocket 4.4 22:46:11 35° WSW 22:48:02 47° WNW 22:53:30 10° N
USA 215 3.8 22:42:31 10° ESE 22:48:54 57° NNE 22:55:18 10° NW
Cosmos 1300 3.1 22:45:54 10° NNW 22:49:12 56° NW 22:49:12 56° NW
STARLINK-1246 3.7 22:48:31 10° NW 22:52:19 74° NW 22:52:19 74° NW
Meteor 2-10 Rocket 4.4 22:47:56 10° N 22:52:45 39° ENE 22:54:09 32° ESE
YAOGAN 11 3.9 22:54:28 80° ESE 22:54:38 82° ENE 22:58:57 10° NNW
Cosmos 1626 Rocket 3.4 22:57:33 84° ESE 22:57:36 85° E 23:02:00 10° N
STARLINK-1224 3.8 22:53:29 10° NW 22:57:05 66° WNW 22:57:05 66° WNW
Cosmos 540 Rocket 4.3 23:01:19 34° ESE 23:01:46 35° ESE 23:06:24 10° NE
STARLINK-1225 3.9 22:58:29 10° WNW 23:01:52 58° WNW 23:01:52 58° WNW
SL-08 ROCKET BODY 4.2 23:01:21 54° S 23:02:46 82° E 23:08:38 10° N
ATLAS 3B R/B 4.2 22:59:47 10° WNW 23:04:30 20° WSW 23:05:21 19° WSW
SeaSat 1 3.6 23:00:46 10° NNE 23:05:17 37° NW 23:07:34 24° WSW
FALCON 9 R/B 3.7 23:08:52 31° SE 23:08:52 31° SE 23:17:07 10° ESE
STARLINK-1230 4.1 23:03:27 10° WNW 23:06:38 50° WNW 23:06:38 50° WNW
Cosmos 2058 Rocket 4.2 23:05:48 10° NNW 23:09:47 32° W 23:09:53 32° W
Cosmos 1980 Rocket 2.8 23:10:05 38° SE 23:10:56 41° ESE 23:16:11 10° NE
STARLINK-1243 4.3 23:08:28 10° WNW 23:11:27 44° WNW 23:11:27 44° WNW
Helios 1B rocket 2.6 23:10:02 10° NNE 23:14:05 63° E 23:14:05 63° E
ALOS 2 4.0 23:14:35 26° W 23:14:35 26° W 23:18:07 10° NW
Cosmos 468 Rocket 4.0 23:14:13 57° SW 23:15:11 74° WNW 23:20:20 10° NNE
Cosmos 1745 Rocket 3.9 23:16:47 48° SSW 23:18:33 74° W 23:24:43 10° N
STARLINK-1317 4.2 23:21:44 43° E 23:21:44 43° E 23:24:33 10° ENE
Cosmos 1626 4.1 23:20:51 19° WNW 23:20:57 19° WNW 23:23:43 10° NNW
Cosmos 2369 3.6 23:20:09 56° SSW 23:21:27 86° ESE 23:27:09 10° NNE
ERBS 3.9 23:20:28 10° NW 23:22:16 29° NW 23:22:16 29° NW
Meteor 1-29 4.0 23:22:01 10° NNE 23:24:32 39° ENE 23:24:32 39° ENE
Cosmos 1455 2.4 23:21:40 10° N 23:25:11 61° ENE 23:25:11 61° ENE
Cosmos 1937 Rocket 3.4 23:20:33 10° NNW 23:25:51 89° ENE 23:27:02 56° SSE
STARLINK-1274 4.4 23:27:24 35° ENE 23:27:24 35° ENE 23:29:38 10° ENE
STARLINK-43 4.4 23:26:08 36° WNW 23:26:52 41° NNW 23:30:23 10° NE
Cosmos 1812 Rocket 3.4 23:22:27 10° NNW 23:26:54 75° W 23:27:04 73° WSW
STARLINK-55 4.3 23:28:11 37° NNE 23:28:11 37° NNE 23:30:21 10° NE
Cosmos 2263 Rocket 3.9 23:23:38 10° N 23:28:25 28° NE 23:33:09 10° ESE
STARLINK-1291 4.1 23:30:04 45° ENE 23:30:04 45° ENE 23:32:47 10° ENE
Alouette 2 Rocket 3.6 23:25:28 10° N 23:30:01 59° ENE 23:30:22 56° E
Cosmos 1656 4.5 23:27:54 29° WSW 23:30:13 44° WNW 23:35:34 10° NNE
Cosmos 1703 3.7 23:30:32 52° E 23:30:32 52° E 23:34:18 10° NNE
Lacrosse 4 Rocket 1.5 23:27:09 10° NW 23:31:03 63° W 23:31:03 63° W
Cosmos 1825 Rocket 3.7 23:31:32 56° ESE 23:31:51 57° E 23:36:08 10° NNE
STARLINK-1264 4.0 23:33:15 50° ENE 23:33:15 50° ENE 23:36:06 10° ENE
Cosmos 2297 Rocket 2.8 23:27:23 10° NW 23:32:32 37° WSW 23:32:59 36° WSW
CZ-4C R/B 2.6 23:31:35 33° WSW 23:33:41 53° NW 23:39:33 10° NNE
Cosmos 1898 Rocket 3.6 23:29:22 10° NNW 23:34:35 56° WSW 23:35:13 52° SW
Cosmos 1602 Rocket 4.0 23:35:23 47° W 23:35:40 48° WNW 23:39:52 10° N
STARLINK-1267 3.8 23:36:27 55° ENE 23:36:27 55° ENE 23:39:27 10° ENE
Cosmos 2219 4.3 23:31:35 10° NW 23:36:18 28° WSW 23:36:34 28° WSW
SL-4 R/B 3.7 23:32:11 10° NW 23:36:46 40° NNE 23:41:16 10° E
Cosmos 2360 4.1 23:35:46 52° SSW 23:37:14 88° ESE 23:42:58 10° NNE
STARLINK-28 4.1 23:39:11 43° N 23:39:11 43° N 23:41:50 10° NE
STARLINK-1207 3.5 23:42:56 67° NE 23:42:56 67° NE 23:46:13 10° NE
PSLV R/B 3.7 23:39:03 10° N 23:43:24 61° WNW 23:43:52 57° WSW
Cosmos 990 Rocket 4.4 23:39:14 10° NNW 23:44:10 43° WSW 23:44:36 42° WSW
STARLINK-1266 3.5 23:46:11 72° NE 23:46:11 72° NE 23:49:36 10° NE
ATLAS CENTAUR R/B 3.8 23:43:12 10° WNW 23:43:35 14° WNW 23:43:35 14° WNW
Cosmos 2082 3.8 23:41:38 10° NNW 23:47:09 57° WSW 23:48:11 49° SSW
STARLINK-33 4.2 23:49:21 39° N 23:49:21 39° N 23:51:52 10° NE
STARLINK-1284 3.4 23:49:26 75° N 23:49:26 75° N 23:52:59 10° NE
Cosmos 2322 Rocket 3.9 23:47:53 17° SE 23:49:52 21° E 23:53:55 10° NE
Cosmos 1814 Rocket 3.9 23:49:00 54° SSW 23:50:16 87° ESE 23:55:36 10° NNE
STARLINK-26 4.0 23:51:17 43° NW 23:51:32 44° NNW 23:54:52 10° NE
STARLINK-1258 3.4 23:52:43 74° NNW 23:52:43 74° NNW 23:56:25 10° NE
STARLINK-1292 3.4 23:56:00 70° NW 23:56:06 70° NNW 23:59:50 10° NE
